Location: Unspecified
(0.0000°N, 0.0000°E)
Time: 14:00:39
(UTC+00:00)

Transit 4A - Visible Passes

Search period start: 02 February 2023 00:00
Search period end: 12 February 2023 00:00
Orbit: 871 x 973 km, 66.8° (Epoch: 01 February)

Date Brightness Start Highest point End Pass type
(mag) Time Alt. Az. Time Alt. Az. Time Alt. Az.
02 Feb 8.1 04:25:45 33° N 04:28:37 72° ENE 04:34:55 10° SSE visible
03 Feb 7.8 04:35:53 45° NW 04:37:48 69° WSW 04:44:05 10° SSE visible
04 Feb 10.3 03:02:22 16° E 03:02:22 16° E 03:04:52 10° ESE visible
04 Feb 8.3 04:45:56 38° W 04:46:58 40° WSW 04:52:51 10° S visible
05 Feb 9.9 03:12:23 24° ESE 03:12:23 24° ESE 03:15:28 10° SE visible
05 Feb 9.0 04:55:57 24° WSW 04:56:10 24° WSW 05:01:08 10° SSW visible
06 Feb 9.6 03:22:19 28° SE 03:22:19 28° SE 03:25:20 10° SE visible
06 Feb 9.7 05:05:53 14° WSW 05:05:53 14° WSW 05:08:26 10° SW visible
07 Feb 9.6 03:32:10 26° SSE 03:32:10 26° SSE 03:34:44 10° SSE visible
08 Feb 9.8 03:41:57 20° S 03:41:57 20° S 03:43:46 10° S visible
09 Feb 10.2 03:51:39 13° S 03:51:39 13° S 03:52:23 10° S visible
